Airfield :
LOGIN :

Register | Disclaimer

   EN    FR    IT 

 










Legend :    VFR   Marginal VFR   IFR   Intensive IFR   Very Intensive IFR
Visi :
Ceiling :
>= 8 km
>= 3000ft
5 to 8 km
1000 to 3000 ft
1500m to 5 km
500 to 1000 ft
800 to 1500m
200 to 500 ft
< 800m
< 200 ft
Symbols :   Thunderstorms  Fog  Heavy snow  Heavy precipitations  Wind > 20 kt
SIGMETs :     Misc.  Thunderstorms  Icing  Turbulence  Mountain Waves  Volcanic Ashes







- Airport Elevation : 1470 ft
- IATA code : KLU


LOWK - Klagenfurt

CURRENT METAR :
  • 171750Z 30004KT CAVOK 13/10 Q1023 NOSIG

EXPIRED METARs :
  • 171720Z 30003KT 250V320 CAVOK 14/10 Q1023 NOSIG
  • 171650Z 33003KT CAVOK 14/11 Q1023 NOSIG
  • 171620Z VRB02KT CAVOK 16/11 Q1023 NOSIG
  • 171550Z VRB01KT CAVOK 17/10 Q1023 NOSIG
  • 171520Z VRB02KT CAVOK 19/09 Q1023 NOSIG

TAF TAF LOWK
Valid from the 17 at 18:00 until the 18 at 18:00 UTC


171715Z 1718/1818 VRB02KT CAVOK TX20/1813Z TN06/1805Z
TEMPO 1801/1808 0500 BCFG SCT002
PROB30
TEMPO 1804/1807 0300 FG VV001
No reported NOTAMs for that airfield.



MET'MAP, your aeronautical weather chart ! - Copyright ORBIFLY December 2007 - Disclaimer

ORBIFLY MET'MAP TEAM :

Programming & Development : Alexandra Zaïnal
Concept & Development : Baudouin d'Aumeries
Co-Development & Prog : Marc-Olivier Méhu
Technical & hardware support : Manuel Goepfert

Contact : metmap@orbifly.com




SOURCES & CREDITS :

   NOAA